TimeEDT,TemperatureF,Dew PointF,Humidity,Sea Level PressureIn,VisibilityMPH,Wind Direction,Wind SpeedMPH,Gust SpeedMPH,PrecipitationIn,Events,Conditions,WindDirDegrees,DateUTC
12:14 AM,28.4,23.0,80,30.06,10.0,WNW,8.1,-,N/A,,Clear,290,2013-05-13 04:14:00
12:34 AM,28.4,23.0,80,30.06,10.0,WNW,8.1,-,N/A,,Clear,290,2013-05-13 04:34:00
12:55 AM,30.2,24.8,80,30.06,10.0,WNW,8.1,-,N/A,,Clear,300,2013-05-13 04:55:00
1:14 AM,28.4,24.8,86,30.06,10.0,WNW,6.9,-,N/A,,Clear,290,2013-05-13 05:14:00
1:35 AM,28.4,23.0,80,30.07,10.0,WNW,8.1,-,N/A,,Clear,290,2013-05-13 05:35:00
1:55 AM,28.4,24.8,86,30.06,10.0,West,8.1,-,N/A,,Clear,280,2013-05-13 05:55:00
2:14 AM,28.4,23.0,80,30.06,10.0,WNW,8.1,-,N/A,,Clear,290,2013-05-13 06:14:00
2:35 AM,28.4,23.0,80,30.06,10.0,WNW,8.1,-,N/A,,Clear,290,2013-05-13 06:35:00
2:55 AM,28.4,23.0,80,30.06,10.0,WNW,8.1,-,N/A,,Clear,290,2013-05-13 06:55:00
3:14 AM,28.4,23.0,80,30.06,10.0,WNW,6.9,-,N/A,,Clear,300,2013-05-13 07:14:00
3:35 AM,28.4,23.0,80,30.07,10.0,WNW,8.1,-,N/A,,Clear,290,2013-05-13 07:35:00
3:54 AM,28.4,24.8,86,30.07,10.0,WNW,6.9,-,N/A,,Clear,290,2013-05-13 07:54:00
4:14 AM,28.4,24.8,86,30.07,10.0,WNW,9.2,-,N/A,,Clear,290,2013-05-13 08:14:00
4:35 AM,28.4,23.0,80,30.08,10.0,WNW,8.1,-,N/A,,Clear,290,2013-05-13 08:35:00
4:54 AM,26.6,23.0,86,30.07,10.0,WNW,6.9,-,N/A,,Clear,290,2013-05-13 08:54:00
5:15 AM,26.6,23.0,86,30.07,10.0,WNW,6.9,-,N/A,,Clear,290,2013-05-13 09:15:00
5:35 AM,26.6,21.2,80,30.07,10.0,WNW,6.9,-,N/A,,Clear,290,2013-05-13 09:35:00
5:54 AM,26.6,21.2,80,30.07,10.0,WNW,6.9,-,N/A,,Clear,290,2013-05-13 09:54:00
6:15 AM,28.4,21.2,74,30.07,10.0,WNW,5.8,-,N/A,,Clear,300,2013-05-13 10:15:00
6:34 AM,28.4,23.0,80,30.08,10.0,WNW,6.9,-,N/A,,Clear,290,2013-05-13 10:34:00
6:54 AM,28.4,23.0,80,30.09,10.0,WNW,9.2,-,N/A,,Clear,300,2013-05-13 10:54:00
7:14 AM,30.2,23.0,75,30.09,10.0,WNW,9.2,-,N/A,,Clear,290,2013-05-13 11:14:00
7:34 AM,30.2,23.0,75,30.10,10.0,WNW,8.1,-,N/A,,Clear,290,2013-05-13 11:34:00
7:55 AM,33.8,23.0,65,30.10,10.0,WNW,8.1,-,N/A,,Clear,290,2013-05-13 11:55:00
8:14 AM,35.6,24.8,65,30.11,10.0,WNW,5.8,-,N/A,,Clear,290,2013-05-13 12:14:00
8:35 AM,37.4,24.8,60,30.12,10.0,WNW,6.9,-,N/A,,Clear,290,2013-05-13 12:35:00
8:55 AM,39.2,23.0,52,30.12,10.0,NW,6.9,-,N/A,,Clear,310,2013-05-13 12:55:00
9:14 AM,41.0,21.2,45,30.12,10.0,WNW,8.1,-,N/A,,Clear,290,2013-05-13 13:14:00
9:35 AM,42.8,19.4,39,30.12,10.0,WNW,6.9,-,N/A,,Clear,290,2013-05-13 13:35:00
9:55 AM,44.6,17.6,34,30.12,10.0,NW,5.8,-,N/A,,Clear,310,2013-05-13 13:55:00
10:14 AM,44.6,17.6,34,30.12,10.0,West,8.1,-,N/A,,Scattered Clouds,260,2013-05-13 14:14:00
10:35 AM,44.6,14.0,29,30.12,10.0,Calm,Calm,-,N/A,,Scattered Clouds,0,2013-05-13 14:35:00
10:54 AM,46.4,15.8,29,30.12,10.0,WNW,6.9,17.3,N/A,,Scattered Clouds,290,2013-05-13 14:54:00
11:15 AM,46.4,12.2,25,30.12,10.0,WSW,3.5,9.2,N/A,,Scattered Clouds,240,2013-05-13 15:15:00
11:35 AM,48.2,14.0,25,30.12,10.0,WNW,5.8,-,N/A,,Scattered Clouds,290,2013-05-13 15:35:00
11:54 AM,48.2,12.2,24,30.12,10.0,WNW,9.2,-,N/A,,Scattered Clouds,290,2013-05-13 15:54:00
12:15 PM,50.0,14.0,24,30.11,10.0,WNW,9.2,19.6,N/A,,Scattered Clouds,300,2013-05-13 16:15:00
12:35 PM,51.8,12.2,21,30.11,10.0,West,10.4,17.3,N/A,,Scattered Clouds,270,2013-05-13 16:35:00
12:54 PM,50.0,17.6,28,30.10,10.0,South,12.7,-,N/A,,Clear,190,2013-05-13 16:54:00
1:15 PM,48.2,24.8,40,30.10,10.0,South,11.5,-,N/A,,Clear,180,2013-05-13 17:15:00
1:34 PM,48.2,28.4,46,30.10,10.0,South,15.0,-,N/A,,Clear,180,2013-05-13 17:34:00
1:55 PM,48.2,28.4,46,30.10,10.0,South,16.1,21.9,N/A,,Clear,190,2013-05-13 17:55:00
2:15 PM,48.2,26.6,43,30.09,10.0,South,13.8,20.7,N/A,,Clear,190,2013-05-13 18:15:00
2:34 PM,46.4,30.2,53,30.09,10.0,South,16.1,-,N/A,,Clear,190,2013-05-13 18:34:00
2:55 PM,46.4,26.6,46,30.08,10.0,South,16.1,23.0,N/A,,Clear,190,2013-05-13 18:55:00
3:15 PM,46.4,28.4,50,30.08,10.0,South,17.3,21.9,N/A,,Clear,190,2013-05-13 19:15:00
3:34 PM,46.4,28.4,50,30.08,10.0,SSW,15.0,23.0,N/A,,Clear,200,2013-05-13 19:34:00
4:34 PM,44.6,30.2,57,30.07,10.0,SSW,13.8,19.6,N/A,,Clear,200,2013-05-13 20:34:00
4:55 PM,46.4,28.4,50,30.07,10.0,SSW,13.8,20.7,N/A,,Clear,200,2013-05-13 20:55:00
5:14 PM,44.6,30.2,57,30.07,10.0,SSW,12.7,19.6,N/A,,Clear,200,2013-05-13 21:14:00
5:35 PM,44.6,30.2,57,30.07,10.0,SSW,13.8,20.7,N/A,,Clear,210,2013-05-13 21:35:00
5:55 PM,42.8,30.2,61,30.07,10.0,South,12.7,-,N/A,,Clear,190,2013-05-13 21:55:00
6:14 PM,42.8,30.2,61,30.07,10.0,SSW,10.4,-,N/A,,Clear,210,2013-05-13 22:14:00
6:35 PM,42.8,30.2,61,30.07,10.0,SSW,11.5,-,N/A,,Clear,210,2013-05-13 22:35:00
6:54 PM,41.0,30.2,65,30.06,10.0,SSW,11.5,-,N/A,,Clear,200,2013-05-13 22:54:00
7:35 PM,41.0,30.2,65,30.04,10.0,SSW,8.1,-,N/A,,Clear,200,2013-05-13 23:35:00
8:15 PM,39.2,28.4,65,30.03,10.0,South,8.1,-,N/A,,Clear,190,2013-05-14 00:15:00
8:35 PM,39.2,28.4,65,30.02,10.0,South,9.2,-,N/A,,Clear,180,2013-05-14 00:35:00
8:54 PM,39.2,28.4,65,30.02,10.0,South,8.1,-,N/A,,Scattered Clouds,180,2013-05-14 00:54:00
9:15 PM,39.2,30.2,70,30.02,10.0,SSW,6.9,-,N/A,,Scattered Clouds,200,2013-05-14 01:15:00
9:35 PM,39.2,30.2,70,30.03,10.0,South,8.1,-,N/A,,Scattered Clouds,190,2013-05-14 01:35:00
9:54 PM,39.2,30.2,70,30.03,10.0,South,6.9,-,N/A,,Mostly Cloudy,180,2013-05-14 01:54:00
10:15 PM,39.2,30.2,70,30.03,10.0,South,8.1,-,N/A,,Overcast,190,2013-05-14 02:15:00
10:34 PM,39.2,30.2,70,30.03,10.0,South,6.9,-,N/A,,Overcast,190,2013-05-14 02:34:00
10:55 PM,39.2,30.2,70,30.02,10.0,SSW,6.9,-,N/A,,Overcast,200,2013-05-14 02:55:00
11:15 PM,39.2,30.2,70,30.01,10.0,SSW,8.1,-,N/A,,Overcast,200,2013-05-14 03:15:00
11:34 PM,39.2,30.2,70,30.01,10.0,SSW,10.4,-,N/A,,Overcast,210,2013-05-14 03:34:00
11:55 PM,39.2,30.2,70,30.00,10.0,SW,8.1,-,N/A,,Overcast,220,2013-05-14 03:55:00